740  
AXUS43 KGID 101603  
MISGRI  
 
GID CWA HOURLY WEATHER ROUNDUP  
NATIONAL WEATHER SERVICE HASTINGS NE  
1100 AM CDT WED AUG 10 2022  
 
NOTE: "FAIR" INDICATES FEW OR NO CLOUDS BELOW 12,000 FEET WITH NO  
SIGNIFICANT WEATHER AND/OR OBSTRUCTIONS TO VISIBILITY.  
   
..SOUTH CENTRAL NEBRASKA
 
 
 
CITY SKY/WX TMP DP RH WIND PRES REMARKS  
GRAND ISLAND SUNNY 84 61 45 S9 30.22S  
KEARNEY SUNNY 82 63 52 S7 30.23S  
HASTINGS NOT AVBL  
ORD SUNNY 85 63 47 S7 30.18F  
YORK SUNNY 79 68 69 SW7 30.22S  
AURORA SUNNY 81 67 61 SW7 30.22F  
LEXINGTON SUNNY 83 63 50 CALM 30.24S  
HOLDREGE SUNNY 81 63 54 S3 30.23S  
HEBRON SUNNY 80 64 58 S3 30.23S  
   
..NEBRASKA PANHANDLE
 
 
 
CITY SKY/WX TMP DP RH WIND PRES REMARKS  
CHADRON SUNNY 90 57 32 VRB3 30.20S  
ALLIANCE SUNNY 86 60 41 VRB3 30.26S  
SCOTTSBLUFF SUNNY 84 64 50 E8 30.26S  
SIDNEY SUNNY 90 53 28 SW13G20 30.28S  
   
..WESTERN AND NORTH CENTRAL NEBRASKA
 
 
 
CITY SKY/WX TMP DP RH WIND PRES REMARKS  
VALENTINE SUNNY 87 62 43 N7 30.20R  
AINSWORTH SUNNY 87 60 40 N6 30.20S  
ONEILL SUNNY 87 60 38 W6 30.17S  
BROKEN BOW SUNNY 84 62 47 S5 30.22S  
IMPERIAL SUNNY 84 65 52 VRB3 30.26S  
NORTH PLATTE SUNNY 86 60 41 CALM 30.23S  
MCCOOK SUNNY 86 62 44 VRB3 30.24R  
   
..EASTERN NEBRASKA
 
 
 
CITY SKY/WX TMP DP RH WIND PRES REMARKS  
NORFOLK SUNNY 84 64 50 S14 30.19F  
SO SIOUX CITY SUNNY 83 67 58 S8 30.17S  
TEKAMAH SUNNY 83 65 54 S7 30.19F  
COLUMBUS MOSUNNY 81 67 62 S8 30.21F  
ALBION SUNNY 80 66 62 S8 30.20S  
OMAHA EPPLEY MOSUNNY 81 64 56 S9 30.21R  
OFFUTT AFB MOSUNNY 82 62 50 S7 30.22S  
MILLARD SUNNY 81 62 52 S8 30.21S  
LINCOLN MOSUNNY 83 65 54 S5 30.21S  
NEBRASKA CITY SUNNY 79 63 57 SW5 30.23S  
BEATRICE MOSUNNY 80 65 58 CALM 30.22S  
FALLS CITY SUNNY 79 65 62 SE5 30.22R  
   
..NORTHERN KANSAS
 
 
 
CITY SKY/WX TMP DP RH WIND PRES REMARKS  
GOODLAND SUNNY 82 64 54 S8 30.29R  
HILL CITY SUNNY 85 61 44 E7 30.25R  
NORTON FAIR 82 61 47 CALM 30.27S  
SMITH CENTER MOSUNNY 81 61 50 S7 30.24R  
HAYS SUNNY 82 60 47 E6 30.24R  
RUSSELL SUNNY 84 62 47 E9 30.22S  
CONCORDIA SUNNY 84 66 54 SE5 30.22R  
SALINA SUNNY 84 62 47 E7 30.21S  
TOPEKA SUNNY 81 66 60 E8 30.21S  
 
CLICK HERE TO GO TO PREVIOUS BULLETINS.

The Nexlab NE Page
The Nexlab KS Page Main Text Page